Starlink 4526

operational
NORAD ID: 53438 Int'l Des: 2022-097 Owner: SPXS Country: US Constellation: starlink
LEOCIRCULAR

About Starlink 4526

Description loading...

Live Position

Loading 3D Globe...

Upcoming Passes

Altitude History

Altitude vs Time

uPlot chart will show altitude changes over time

Two-Line Element Set

1 53438U 22097BC 26037.98615840 -.00000783 00000-0 -31135-4 0 9999
2 53438 53.2164 241.5978 0001445 91.3566 268.7592 15.08829326194160
Epoch: Feb 6, 2026 • Age: 16 hours

Current Status

Altitude 546.1 km
Velocity 7.59 km/s
Sub-Earth Point -20.70°S, 147.2°W
Launch Date Aug 10, 2022
Age 3.4 years
Type internet

Technical Details

Classification Payload
Mass 297.00 kg
Dry Mass 275.00 kg
Total Mass 297.00 kg
Length 0.20 m
Diameter 2.80 m
Span 9.00 m
Shape Box + pan
Manufacturer SPXS
Bus Type Starlink
Phase Status In Orbit
Owner/State SPXS/US

Large Constellations

Loading constellations...